Printer-friendly version

IAU Minor Planet Center

Minor Planet Center

MPEC 2006-B10 : 2006 BA

The following Minor Planet Electronic Circular may be linked-to from your own Web pages, but must not otherwise be redistributed electronically.


Read MPEC 2006-B09 Read MPEC 2006-B11


M.P.E.C. 2006-B10                                Issued 2006 Jan. 19, 16:20 UT

     The Minor Planet Electronic Circulars contain information on unusual
         minor planets and routine data on comets.  They are published
   on behalf of Commission 20 of the International Astronomical Union by the
          Minor Planet Center, Smithsonian Astrophysical Observatory,
                          Cambridge, MA 02138, U.S.A.

                  Supported in part by the Brinson Foundation
                  Supported in part by the TABASGO Foundation
             Prepared using the Tamkin Foundation Computer Network

                              MPC@CFA.HARVARD.EDU
          URL http://cfa-www.harvard.edu/iau/mpc.html  ISSN 1523-6714

                                    2006 BA

Observations:
     K06B00A* C2006 01 18.23694 07 45 33.94 +27 29 41.9          18.5 V EB010703
     K06B00A  C2006 01 18.24333 07 45 31.57 +27 28 29.2          18.9 V EB010703
     K06B00A  C2006 01 18.24984 07 45 29.30 +27 27 16.3          19.8 V EB010703
     K06B00A  C2006 01 18.25625 07 45 26.96 +27 26 01.9          19.2 V EB010703
     K06B00A  C2006 01 18.26582 07 45 23.16 +27 24 08.4          18.4 V EB010703
     K06B00A  C2006 01 18.28286 07 45 16.67 +27 20 50.9          19.1 V EB010703
     K06B00A  C2006 01 18.29144 07 45 13.34 +27 19 06.1          19.1 V EB010703
     K06B00A  C2006 01 18.30398 07 45 08.49 +27 16 32.3          19.8 V EB010703
     K06B00A  C2006 01 18.31068 07 45 05.90 +27 15 10.3          19.0 V EB010703
     K06B00A  C2006 01 18.31741 07 45 03.27 +27 13 46.0          18.5 V EB010703
     K06B00A  C2006 01 18.32414 07 45 00.57 +27 12 21.9          18.3 V EB010703
     K06B00A  C2006 01 19.22678 07 42 37.51 +23 11 37.6          18.8 V EB010703
     K06B00A  C2006 01 19.22845 07 42 36.75 +23 11 03.3          18.8 V EB010703
     K06B00A  C2006 01 19.23010 07 42 35.89 +23 10 31.4          19.2 V EB010703
     K06B00A  C2006 01 19.25943 07 42 20.65 +23 00 38.1          17.8 V EB010703
     K06B00A  C2006 01 19.26618 07 42 17.05 +22 58 18.8          18.0 V EB010703
     K06B00A  C2006 01 19.27291 07 42 13.47 +22 56 00.0          18.0 V EB010703
     K06B00A  C2006 01 19.28700 07 42 05.79 +22 51 03.2          18.5 V EB010703
     K06B00A  C2006 01 19.28781 07 42 05.32 +22 50 45.3          18.1 V EB010703
     K06B00A  C2006 01 19.28823 07 42 05.11 +22 50 37.5          18.0 V EB010703
     K06B00A  C2006 01 19.29145 07 42 03.45 +22 49 27.9          18.0 R EB010854
     K06B00A  C2006 01 19.29245 07 42 02.81 +22 49 06.7          18.0 R EB010854
     K06B00A  C2006 01 19.29347 07 42 02.30 +22 48 47.3          18.2 R EB010854
     K06B00A  C2006 01 19.29632 07 42 00.73 +22 47 46.1          18.0 R EB010854
     K06B00A  C2006 01 19.29698 07 42 00.39 +22 47 30.7          17.6 R EB010854
     K06B00A  C2006 01 19.29763 07 41 59.99 +22 47 16.5          17.7 R EB010854

Observer details:
703 Catalina Sky Survey.  Observer R. A. Kowalski.  Measurers E. C. Beshore,
    E. J. Christensen, G. J. Garradd, A. D. Grauer, R. E. Hill, R. A. Kowalski,
    S. M. Larson, R. H. McNaught.  0.68-m Schmidt + CCD.
854 Sabino Canyon Observatory, Tucson.  Observer J. E. McGaha.  0.36-m f/10.0
    Schmidt-Cassegrain + CCD.

Orbital elements:
2006 BA                                                  Earth MOID = 0.0034 AU
Epoch 2006 Mar. 6.0 TT = JDT 2453800.5                  MPC
M 349.67473              (2000.0)            P               Q
n   0.83148774     Peri.  250.62841     -0.98518353     +0.16274520
a   1.1200364      Node   298.70569     -0.12486717     -0.89691665
e   0.2173138      Incl.    3.53665     -0.11756534     -0.41116242
P   1.19           H   27.6           G   0.15           U   7
Residuals in seconds of arc
060118 703  0.1-  0.2+    060118 703  0.7+  0.5-    060119 703  0.2-  0.2-
060118 703  0.8-  0.2-    060118 703  0.0   0.2-    060119 703  0.1+  1.0+
060118 703  0.8+  1.2+    060119 703  0.4-  0.5+    060119 854  0.5+  1.8-
060118 703  1.3+  0.6+    060119 703  0.7+  0.6-    060119 854  0.7-  1.6-
060118 703  1.3-  1.7-    060119 703  0.3+  0.2+    060119 854  0.0   0.7+
060118 703 (0.9-  2.3+)   060119 703  0.4-  0.2-    060119 854  0.0   0.5+
060118 703  0.9-  0.6+    060119 703  0.3-  0.2-    060119 854  0.3+  0.7-
060118 703  0.2-  0.4-    060119 703  0.2+  0.9+    060119 854  0.2-  1.0-
060118 703  0.4+  0.2+    060119 703  0.1+  0.6+

Ephemeris:
2006 BA                  a,e,i = 1.12, 0.22, 4                   q = 0.8766
Date    TT    R. A. (2000) Decl.     Delta      r     Elong.  Phase     V
2006 01 15    07 49.92   +33 24.8    0.0265   1.010   167.8    11.9    20.5
2006 01 16    07 48.96   +32 15.0    0.0229   1.006   168.8    11.0    20.1
2006 01 17    07 47.67   +30 38.0    0.0192   1.003   170.1     9.7    19.7
2006 01 18    07 45.85   +28 15.2    0.0156   0.999   171.8     8.1    19.1
2006 01 19    07 43.10   +24 26.4    0.0120   0.996   173.9     6.1    18.5
2006 01 20    07 38.48   +17 28.8    0.00858  0.992   172.6     7.3    17.8
2006 01 21    07 29.06   +01 47.0    0.00540  0.989   159.0    20.9    17.3
2006 01 22    06 59.45   -40 35.5    0.00344  0.986   117.1    62.8    17.5
2006 01 23    00 02.42   -81 07.3    0.00465  0.982    65.6   114.1    20.3
2006 01 24    20 39.67   -64 38.2    0.00765  0.979    45.4   134.3    23.1
2006 01 25    20 18.88   -56 24.0    0.0111   0.976    37.4   142.2    24.9

Kyle E. Smalley              (C) Copyright 2006 MPC           M.P.E.C. 2006-B10

Read MPEC 2006-B09 Read MPEC 2006-B11


Our Web policy. Index to the CBAT/MPC/ICQ pages.


Valid HTML 4.01!